Weather History for Jaipur, India

Change the Weather History Date:

Friday, February 15, 2013

  Actual Average Record
Temperature  
Mean Temperature 66 °F -  
Max Temperature 76 °F - - ()
Min Temperature 55 °F - - ()
Growing Degree Days 16 (Base 50)    
Moisture  
Dew Point 56 °F    
Average Humidity 75    
Maximum Humidity 100    
Minimum Humidity 40    
Precipitation  
Precipitation 0.00 in - - ()
Sea Level Pressure  
Sea Level Pressure 29.84 in    
Wind  
Wind Speed 5 mph ()    
Max Wind Speed 9 mph    
Max Gust Speed -    
Visibility 1.6 miles    
Events Rain , Thunderstorm    
T = Trace of Precipitation, MM = Missing Value Source: Averaged Metar Reports

Daily Weather History Graph

Daily Weather History Graph

Search for Another Location

Airport:

Trip Planner

Search our weather history database for the weather conditions in past years. The results will help you decide how hot, cold, wet, or windy it might be!

Date:

Astronomy

Feb. 15, 2013 Rise Set
Actual Time 7:03 AM IST 6:18 PM IST
Civil Twilight 6:39 AM IST 6:42 PM IST
Nautical Twilight 6:12 AM IST 7:09 PM IST
Astronomical Twilight 5:45 AM IST 7:37 PM IST
Moon 9:57 AM IST (2/15) 11:16 PM IST (2/15)
Length of Visible Light 12h 03m
Length of Day
11h 15m
Waxing Crescent, 26% of the Moon is Illuminated
Feb 15
Waxing Crescent
Feb 18
First Quarter
Feb 26
Full
Mar 5
Last Quarter
Mar 12
New

Hourly Weather History & Observations

Time (IST) Temp. Dew Point Humidity Pressure Visibility Wind Dir Wind Speed Gust Speed Precip Events Conditions
12:00 AM 68.0 °F 42.8 °F 40% 29.89 in 1.9 mi East 5.8 mph - N/A   Haze
2:00 AM 57.2 °F 55.4 °F 94% 29.89 in 1.6 mi Variable 2.3 mph - N/A   Haze
2:30 AM 60 °F 55 °F 79% 29.88 in 1 mi East 6.9 mph - -   Haze
3:00 AM 59.0 °F 55.4 °F 88% 29.89 in 1.6 mi East 9.2 mph - N/A   Haze
4:00 AM 55.4 °F 53.6 °F 94% 29.86 in 1.6 mi East 8.1 mph - N/A   Haze
5:00 AM 55.4 °F 53.6 °F 94% 29.86 in 1.6 mi East 9.2 mph - N/A   Haze
5:30 AM 58 °F 54 °F 83% 29.86 in 1 mi East 6.9 mph - -   Smoke
6:00 AM 57.2 °F 53.6 °F 88% 29.86 in 1.1 mi East 5.8 mph - N/A   Smoke
8:00 AM 55.4 °F 53.6 °F 94% 29.89 in 1.2 mi NE 4.6 mph - N/A Rain , Thunderstorm Light Thunderstorms and Rain
8:30 AM 59 °F 54 °F 80% 29.89 in 1 mi East 6.9 mph - -   Mist
9:00 AM 57.2 °F 57.2 °F 100% 29.92 in 1.2 mi East 9.2 mph - N/A   Haze
10:00 AM 62.6 °F 50.0 °F 63% 29.89 in 2.5 mi ESE 3.5 mph - N/A   Haze
11:00 AM 62.6 °F 50.0 °F 63% 29.89 in 2.5 mi ESE 3.5 mph - N/A   Haze
11:30 AM 69 °F 60 °F 64% 29.87 in 1 mi East 4.6 mph - -   Haze
12:00 PM 69.8 °F 59.0 °F 68% 29.89 in 2.5 mi East 3.5 mph - N/A   Haze
1:00 PM 71.6 °F 57.2 °F 60% 29.86 in 2.5 mi SE 3.5 mph - N/A   Haze
2:00 PM 71.6 °F 57.2 °F 60% 29.80 in 2.5 mi South 4.6 mph - N/A   Haze
2:30 PM 74 °F 60 °F 53% 29.82 in 1 mi SE 3.5 mph - -   Haze
3:00 PM 75.2 °F 60.8 °F 61% 29.86 in 2.5 mi ESE 3.5 mph - N/A   Haze
4:00 PM 73.4 °F 60.8 °F 65% 29.83 in 2.5 mi ESE 3.5 mph - N/A   Haze
5:30 PM 74 °F 60 °F 52% 29.74 in 1 mi SE 4.6 mph - -   Haze
6:00 PM 73.4 °F 59.0 °F 61% 29.74 in 1.9 mi East 4.6 mph - N/A   Haze
7:00 PM 66.2 °F 60.8 °F 83% 29.77 in 1.2 mi East 9.2 mph - N/A Rain , Thunderstorm Thunderstorms and Rain
8:00 PM 66.2 °F 62.6 °F 88% 29.77 in 1.2 mi ESE 8.1 mph - N/A Thunderstorm Thunderstorm
8:30 PM 66 °F 61 °F 78% 29.75 in 1 mi East 6.9 mph - - Thunderstorm Thunderstorm
10:00 PM 64.4 °F 59.0 °F 83% 29.77 in 1.2 mi East 8.1 mph - N/A Thunderstorm Thunderstorm
11:00 PM 62.6 °F 57.2 °F 82% 29.77 in 1.2 mi East 6.9 mph - N/A Thunderstorm Thunderstorm
11:30 PM 63 °F 58 °F 77% 29.76 in 1 mi East 4.6 mph - - Thunderstorm Thunderstorm